Wind_Speed
25 25 24 24 24 23 24 25 26 27 28 28 28 28 28 27 27 27 27 27 28 28 28 28 28 27 27 26 26 26 26 26 26 26 27 27 28 28 29 30 31 32 32 31 31 31 32 32 32 30 30 31 33 34 33 31 32 31 31 31 31 32 33 32 31 33 33 31 30 31 33 34 34 35 33 32 31 30 30 30 31 30 29 29 29
27 26 26 25 25 25 25 26 26 27 28 28 29 29 29 29 29 29 29 29 29 29 30 30 30 29 28 28 28 27 27 27 27 28 28 28 28 29 29 30 30 31 32 31 31 30 31 32 32 31 30 31 32 34 33 32 32 30 30 30 32 34 35 32 30 31 31 31 30 30 31 33 34 35 34 33 32 31 30 30 32 31 30 30 29
28 27 27 27 27 27 27 28 28 28 28 29 29 30 30 30 31 31 31 31 32 32 32 32 32 31 30 29 29 29 28 28 28 29 29 29 28 28 29 30 30 30 31 31 31 30 31 32 33 31 29 29 32 33 34 34 32 30 29 29 29 30 32 31 29 29 29 31 32 31 31 32 34 35 35 34 33 32 30 30 32 32 31 30 30
29 29 28 28 28 29 30 30 30 30 30 29 30 30 31 31 32 33 33 34 34 34 35 35 34 33 32 32 31 30 29 29 29 29 29 29 28 28 29 29 29 30 31 31 31 30 30 32 33 33 30 29 31 33 35 34 32 30 29 28 26 25 28 29 29 29 29 31 32 32 32 32 33 35 36 33 32 32 31 32 34 33 31 31 30
30 30 29 29 30 31 31 31 31 31 31 31 31 31 31 32 33 34 35 35 36 36 36 36 36 36 35 34 33 32 31 30 29 29 29 29 29 28 28 29 29 30 31 31 32 31 30 31 32 33 32 30 30 32 34 35 32 30 30 30 28 28 29 30 31 31 30 32 32 32 32 32 33 35 35 34 33 34 33 35 36 34 32 31 31
31 30 30 30 31 32 32 32 32 32 32 32 32 32 32 33 34 34 35 36 37 38 38 38 38 38 37 36 34 33 32 30 30 29 29 29 29 28 28 28 29 30 30 31 32 31 30 30 31 33 33 31 29 31 33 35 33 31 31 31 31 32 32 32 32 33 32 33 33 33 33 33 33 34 35 34 35 36 36 37 37 34 33 33 32
32 32 31 31 32 32 33 33 34 34 33 33 33 33 33 33 34 35 36 37 38 38 39 39 39 39 38 37 36 34 33 31 30 30 30 29 29 29 29 29 29 30 30 31 31 31 30 30 31 31 32 32 29 29 31 33 34 33 33 33 33 34 34 33 34 34 34 34 34 34 33 33 33 34 35 35 36 38 38 38 37 34 34 34 33
33 32 32 32 32 33 33 34 34 35 34 34 33 33 34 34 35 35 36 37 38 39 39 40 40 39 39 38 37 35 33 32 31 30 30 29 29 29 29 29 29 29 30 30 31 31 31 30 30 30 31 31 29 28 29 31 33 34 34 34 35 35 36 35 35 35 35 35 35 35 34 34 34 34 35 35 36 37 37 37 37 35 35 36 36
33 33 33 33 34 34 34 35 35 35 35 35 34 34 34 35 36 37 37 38 38 39 39 40 40 39 39 38 37 36 34 33 32 31 30 30 30 30 30 30 30 29 29 29 30 31 31 30 30 29 30 30 30 28 28 31 32 33 34 35 36 36 36 36 36 36 36 36 35 35 35 36 35 35 35 35 35 37 37 37 37 36 37 38 37
33 34 34 35 35 35 36 36 35 35 35 35 35 35 35 36 37 37 38 39 39 39 39 39 39 39 38 38 37 36 35 34 33 32 31 30 30 32 32 31 31 30 29 29 29 30 30 30 29 28 28 29 30 28 28 30 32 33 35 35 36 37 37 36 36 36 36 36 35 35 36 37 36 36 36 37 37 38 38 38 38 39 41 41 39
34 35 36 36 36 36 36 36 37 36 36 36 36 36 37 37 38 38 39 39 40 40 40 39 39 38 38 37 36 36 35 35 34 33 32 31 31 32 33 33 32 31 29 29 29 29 30 31 30 28 27 28 29 28 27 29 30 31 33 34 35 36 36 35 36 37 36 36 36 36 36 37 37 36 37 39 40 40 39 39 39 40 42 42 41
36 37 37 37 38 38 38 38 38 38 37 37 37 38 38 39 39 40 40 40 40 40 40 39 39 39 38 37 36 36 36 35 34 34 34 33 33 33 33 34 33 32 30 29 29 29 30 31 31 29 28 28 29 29 28 28 28 29 30 31 33 35 34 34 36 36 36 37 38 37 36 35 35 36 38 40 41 41 40 40 40 40 41 42 42
37 38 38 39 39 39 40 39 39 38 38 38 39 39 39 40 40 41 41 42 41 41 40 40 39 39 38 38 37 37 36 35 35 35 35 35 35 34 34 34 33 32 32 30 30 30 30 30 31 31 29 28 29 30 29 28 28 28 28 29 31 33 33 34 35 36 37 38 39 38 36 35 36 36 37 39 41 42 41 40 40 42 43 43 43
38 38 39 40 40 41 41 40 39 39 39 39 40 40 41 41 41 41 41 42 42 42 41 41 40 40 39 39 38 38 37 37 36 36 35 35 35 35 35 35 34 33 33 32 31 31 30 29 30 32 31 29 29 30 30 29 28 27 28 29 30 31 32 34 35 36 37 38 38 37 37 37 37 36 37 39 41 41 40 39 40 42 43 44 45
38 39 40 40 41 41 41 39 39 39 40 40 41 41 41 41 41 41 41 42 42 42 42 42 42 41 41 40 40 40 39 39 38 38 37 37 36 36 36 36 35 35 34 34 32 31 30 29 29 31 32 31 30 31 30 30 28 27 27 29 29 30 31 33 35 36 37 37 38 37 37 38 39 38 38 39 41 41 40 39 39 41 42 45 47
39 40 40 41 41 41 40 39 39 40 40 41 41 41 41 41 42 42 42 42 42 42 42 42 42 42 42 42 42 42 42 41 40 40 40 39 38 38 38 37 37 37 36 35 34 32 31 30 29 30 32 33 32 32 32 31 29 27 27 28 29 30 31 32 35 36 37 38 37 37 38 39 39 39 38 38 39 40 40 39 39 42 45 47 47
40 40 41 41 41 40 40 39 40 40 40 40 41 41 41 42 42 41 41 41 41 41 41 41 41 41 42 42 42 42 43 42 42 41 41 40 40 39 39 38 38 38 38 36 35 34 32 31 30 29 31 33 33 33 33 32 31 29 29 30 30 31 31 31 33 35 37 39 38 37 37 37 37 38 37 36 38 40 39 38 39 42 45 46 45
40 40 40 40 40 39 39 39 39 39 39 40 41 41 41 41 41 41 41 41 41 41 41 41 41 41 41 41 41 41 41 42 41 41 40 40 39 39 39 39 38 38 38 37 35 34 34 32 31 30 30 32 34 34 33 32 32 31 30 31 32 32 31 30 30 31 34 36 36 36 36 36 38 39 37 36 38 39 38 39 40 42 44 45 45
40 40 39 39 38 38 38 38 38 39 40 41 41 41 41 41 41 42 42 43 43 43 43 43 43 43 42 42 42 41 41 41 40 39 39 38 38 37 37 38 37 37 37 36 35 34 34 33 33 31 30 31 33 35 34 33 33 33 31 30 31 31 30 30 30 31 33 34 34 35 35 37 39 40 38 37 38 39 38 38 41 44 46 46 45
38 38 38 38 37 37 37 38 39 41 41 42 41 41 41 42 43 44 45 45 45 45 45 45 45 45 45 44 44 43 43 42 41 41 39 39 38 38 37 37 37 37 37 36 35 34 33 33 34 33 32 31 33 35 36 34 34 34 33 32 31 31 32 33 32 31 34 36 37 36 35 35 36 36 36 36 38 39 38 38 41 43 44 45 45
37 37 37 37 37 37 38 40 41 41 41 41 41 42 43 44 45 46 47 47 48 48 48 48 48 48 48 48 47 46 46 45 44 43 42 41 40 39 38 38 37 37 37 36 35 34 32 33 34 34 33 33 33 36 37 36 33 34 34 34 33 33 33 33 30 26 27 30 33 34 34 34 35 36 37 37 37 38 38 39 41 43 44 46 48
36 36 36 37 37 39 40 41 41 41 41 41 43 44 45 46 47 48 48 48 49 49 49 50 50 50 50 50 50 49 49 48 47 46 45 44 43 41 40 39 38 37 36 36 35 33 32 33 35 35 35 35 34 36 38 36 32 31 32 32 33 33 32 32 30 28 27 28 29 31 33 35 36 35 36 37 37 37 38 38 39 39 41 45 48
35 36 37 37 38 39 39 39 40 40 42 43 44 45 46 47 47 47 48 48 48 49 49 50 51 51 51 52 52 52 51 50 50 48 47 45 44 43 41 40 39 38 36 36 35 33 33 33 35 36 36 36 35 36 37 35 31 29 29 30 31 32 31 31 32 33 33 32 32 33 34 36 35 34 34 35 36 37 39 39 37 34 35 39 43
35 36 37 37 37 38 38 39 40 41 42 43 44 44 45 45 46 46 46 47 47 48 48 49 50 50 51 51 52 52 52 52 51 50 49 46 44 43 42 40 39 38 37 35 34 33 33 33 35 36 37 37 37 36 36 34 30 28 28 28 29 31 30 30 32 34 35 34 34 34 34 35 35 34 34 36 36 37 38 39 37 34 33 36 40
35 35 35 35 36 37 38 39 39 40 41 41 42 42 42 42 43 43 43 44 44 45 46 46 47 48 49 49 50 50 51 51 50 50 49 48 45 43 41 39 38 37 36 35 34 34 33 34 34 36 37 37 37 36 36 34 30 27 27 27 28 29 30 29 30 32 33 32 32 32 32 32 33 34 34 34 35 34 35 36 37 36 35 36 39
33 33 34 34 35 36 37 37 37 38 38 38 38 38 38 38 39 39 39 40 41 41 42 43 43 44 44 45 45 46 46 46 46 45 45 45 44 43 41 39 37 36 35 34 34 34 35 35 35 35 35 36 35 34 34 34 30 27 27 28 28 28 28 29 29 29 28 27 27 27 27 27 28 30 30 30 30 29 29 31 32 34 35 36 38
32 32 32 33 33 34 34 34 34 34 34 34 34 34 34 34 35 35 35 36 36 36 36 37 37 37 37 38 38 38 38 38 38 38 38 38 37 37 37 37 36 35 34 33 34 34 35 35 35 35 35 35 34 32 31 32 31 28 27 28 28 27 27 28 29 28 27 25 24 22 22 21 21 21 23 23 24 26 27 29 30 32 34 36 38
30 30 30 30 30 30 30 30 30 29 30 30 30 30 30 30 30 30 30 31 31 31 31 31 30 30 30 30 30 30 29 29 28 29 30 30 30 30 31 32 33 34 33 33 33 34 34 35 35 34 33 32 31 30 29 29 30 29 28 27 27 26 26 27 28 27 26 25 24 22 21 20 19 20 23 26 28 30 33 34 35 35 36 37 40
28 28 28 27 27 26 26 26 26 26 26 26 26 26 26 26 26 26 27 27 27 28 28 28 29 28 27 26 25 24 23 22 21 20 21 22 23 25 26 28 29 31 31 31 32 33 33 32 31 30 30 31 30 29 28 28 28 28 27 26 25 25 25 26 28 27 24 22 22 22 22 22 22 24 28 30 31 32 33 34 36 37 37 38 40
26 25 24 23 22 22 23 23 24 24 24 23 23 23 23 23 23 24 24 25 26 27 28 29 30 30 30 29 28 25 23 21 19 18 17 16 17 18 20 22 24 26 27 28 29 30 30 30 29 27 27 29 29 26 25 25 26 26 26 26 26 26 25 26 28 28 25 22 22 22 22 23 24 26 29 31 32 33 34 35 36 38 39 41 42
22 21 19 19 19 20 21 21 22 22 21 21 21 21 21 21 22 22 23 24 25 26 27 29 30 31 32 32 31 29 26 23 20 17 16 15 15 15 15 16 17 20 22 24 25 26 27 28 28 26 25 26 26 25 24 24 25 25 25 25 25 26 26 27 28 28 28 26 25 24 25 25 26 26 27 30 32 34 35 35 35 36 39 42 43
18 17 17 17 18 19 20 20 20 20 19 19 19 19 19 20 20 21 22 22 23 25 26 27 28 29 30 31 31 31 30 27 24 20 17 15 14 14 14 15 15 15 17 18 21 23 24 25 26 25 24 24 25 26 26 27 26 26 27 26 26 26 26 27 28 29 29 29 29 29 28 29 29 28 29 30 31 32 33 34 35 36 38 40 41
14 15 16 17 18 18 18 18 18 18 18 18 17 17 18 18 19 20 20 21 22 23 24 25 26 27 27 28 29 29 30 29 29 27 25 22 19 16 14 14 14 15 16 16 18 19 21 22 23 24 24 24 24 25 26 26 27 28 28 28 28 28 28 28 29 30 32 34 34 34 34 34 33 33 33 34 34 34 35 36 37 38 39 40 41
14 15 16 16 17 17 17 17 17 17 17 16 16 16 16 17 17 18 19 20 21 22 22 23 24 24 25 26 27 27 27 27 27 27 27 27 26 23 21 18 15 13 13 14 16 17 19 21 22 23 24 24 24 24 24 25 26 28 29 30 31 32 32 32 33 33 35 36 37 37 38 38 38 38 38 38 38 38 39 40 41 41 42 43 43
15 15 16 16 16 16 17 16 16 16 15 15 15 15 15 15 16 16 17 18 19 20 21 21 22 22 23 24 24 24 24 24 24 24 25 25 25 25 25 24 23 21 18 16 14 13 14 16 19 21 23 24 24 24 25 25 26 27 28 30 31 33 34 35 35 36 36 36 37 37 37 38 38 38 38 39 39 39 39 40 41 42 43 43 44
15 15 16 16 16 16 16 15 15 15 14 14 14 14 14 14 14 15 15 16 17 18 19 19 20 20 21 22 22 23 23 23 23 23 23 23 23 23 24 24 23 23 23 22 21 18 16 14 13 14 16 18 21 22 24 25 26 27 28 29 30 32 33 35 36 37 37 38 38 39 39 39 39 39 39 40 40 40 40 41 41 41 42 43 43
15 15 16 16 15 15 15 15 15 14 14 13 13 13 12 12 12 13 13 14 15 16 16 17 18 18 19 20 21 21 21 21 22 23 23 23 23 23 22 22 22 22 22 22 22 22 21 20 18 16 14 13 14 15 17 19 21 23 25 26 28 30 32 34 36 37 39 40 41 41 42 43 43 43 42 42 43 43 44 44 44 44 44 44 44
15 15 15 15 14 14 14 14 14 13 13 12 12 12 11 11 11 11 11 12 13 14 15 16 16 17 18 18 19 19 20 21 22 22 22 22 22 22 21 21 21 21 20 20 20 20 20 20 20 20 19 18 17 16 15 14 15 15 17 19 21 24 26 28 30 33 36 38 40 41 43 44 45 45 46 45 45 46 46 47 47 47 47 47 47
14 14 14 13 13 13 13 13 13 13 12 12 11 11 10 10 10 10 11 11 12 13 14 15 15 16 17 18 18 19 20 21 21 21 21 21 21 20 20 20 20 20 20 20 20 20 19 19 19 19 19 19 19 19 18 18 17 16 15 15 15 16 18 20 22 24 26 29 32 34 37 39 40 42 43 44 45 45 45 46 47 47 47 47 47
13 12 12 12 12 13 13 13 13 12 12 11 11 10 10 9 9 9 10 11 12 13 13 14 15 15 16 17 18 19 20 20 20 20 20 20 20 20 20 19 19 19 19 19 19 19 19 19 18 18 19 19 19 19 19 19 19 19 18 18 18 17 16 16 17 17 19 20 22 24 27 29 31 33 34 36 37 39 40 41 42 43 44 45 45
11 11 11 12 12 12 12 12 12 11 11 10 10 9 9 9 8 9 9 10 11 12 13 14 14 15 15 16 18 19 20 20 20 20 20 20 20 20 20 20 19 19 18 18 18 18 18 18 18 18 18 18 18 18 18 18 18 18 19 19 19 19 19 19 19 18 18 18 19 19 20 22 23 24 26 27 28 30 31 32 34 35 37 38 39
10 11 11 12 12 12 12 12 11 11 10 10 9 9 9 9 9 9 10 11 12 12 13 14 15 15 16 16 17 18 19 19 20 20 20 20 20 20 20 20 20 20 20 19 19 18 18 18 18 18 18 18 18 18 18 18 18 19 19 19 19 19 20 20 20 21 21 20 20 20 20 21 21 22 22 23 24 24 25 26 27 28 30 31 32
9 10 11 11 11 11 11 11 10 10 10 9 9 9 10 10 10 10 11 12 12 13 14 15 16 17 18 18 18 18 18 19 19 19 20 21 21 21 21 21 21 21 21 20 20 20 19 19 19 18 18 18 18 18 18 18 18 18 19 19 19 19 20 20 20 21 21 21 22 22 21 21 21 21 22 22 23 23 23 24 24 25 25 26 28
9 10 10 10 10 10 10 10 10 10 10 10 10 10 10 11 11 11 11 12 13 14 15 16 17 18 19 20 20 20 20 19 19 19 19 20 21 21 22 22 22 21 21 21 21 21 21 20 20 20 19 19 19 18 18 18 18 18 18 19 19 19 19 20 20 20 20 21 21 22 22 22 22 22 22 22 23 23 23 23 23 24 24 24 24
9 10 10 10 10 10 10 10 10 10 10 10 11 11 11 12 12 11 12 13 14 15 15 16 17 18 19 21 21 22 22 22 21 21 21 20 21 21 22 22 22 22 22 22 22 22 22 21 21 21 20 20 20 19 19 19 18 18 18 18 19 19 20 20 20 20 21 21 21 21 22 22 23 23 23 23 23 23 23 23 23 23 23 23 23
9 10 10 11 11 11 11 11 11 10 11 11 11 11 11 12 13 13 13 13 14 15 16 17 18 19 20 21 22 22 23 23 23 23 23 23 23 22 22 22 22 22 22 22 22 22 23 22 22 22 21 21 20 20 20 20 19 19 19 19 19 19 20 20 20 21 21 21 21 22 22 22 22 23 23 23 24 24 24 24 24 24 24 24 24
10 10 11 12 12 12 12 12 12 11 11 11 12 12 12 12 13 14 14 14 15 16 16 17 18 19 20 21 22 23 24 24 24 24 24 25 24 24 23 23 23 22 22 22 22 23 23 23 24 23 23 23 22 21 21 20 20 20 20 20 19 20 20 20 21 21 21 22 22 22 22 23 23 23 23 24 24 24 24 24 24 24 25 25 24
11 12 13 13 13 13 13 13 13 13 13 13 13 13 13 13 13 14 15 15 15 16 17 18 18 19 20 21 22 23 24 25 25 25 25 25 24 24 24 23 23 23 22 23 23 23 23 24 24 25 25 24 24 23 23 22 21 21 21 20 20 20 20 21 21 21 22 22 23 23 23 23 23 24 24 24 24 24 24 24 24 24 25 25 25
12 13 13 14 14 14 13 13 13 13 13 14 14 14 14 14 14 15 15 16 16 17 18 19 20 20 21 22 23 24 24 25 25 25 25 24 23 23 23 23 23 23 23 23 24 24 24 24 24 25 25 25 25 25 24 23 23 22 22 21 21 21 21 21 21 22 22 23 23 23 24 24 24 24 25 25 25 25 25 25 25 24 24 25 25
12 12 13 14 14 14 14 13 13 13 13 13 14 14 14 14 15 16 16 17 18 19 20 21 22 23 23 23 24 24 24 24 24 24 24 23 23 22 22 23 23 23 24 24 25 25 25 25 25 25 25 25 25 26 25 25 25 24 23 23 23 22 22 22 22 22 23 23 23 24 24 25 25 25 25 25 26 26 26 26 26 25 25 25 25
11 11 11 12 12 12 12 12 12 12 12 12 13 14 15 15 16 17 18 19 19 20 21 22 23 24 24 24 23 24 24 24 24 24 24 24 23 23 23 23 24 24 25 25 26 26 26 26 26 26 26 26 26 26 26 26 26 25 25 24 24 24 24 23 23 23 23 24 24 24 25 25 26 26 26 26 26 26 26 26 26 26 26 26 26
Wind_Direction
262 265 268 272 277 280 281 281 282 281 281 281 281 281 281 283 284 286 287 287 288 289 289 288 287 287 286 286 286 287 290 293 295 297 299 301 303 305 306 306 308 310 311 312 313 313 314 316 313 303 284 269 265 262 258 253 251 255 257 257 262 258 243 233 233 240 243 243 244 243 242 241 239 238 236 235 236 236 235 236 236 236 240 242 242
263 265 269 272 276 279 280 282 283 283 283 282 281 280 280 281 283 285 286 288 289 290 289 288 288 287 286 285 285 286 287 289 292 295 297 300 303 304 305 305 306 308 311 313 313 313 314 316 316 309 294 277 268 263 258 254 252 253 255 257 262 256 243 233 231 237 244 247 246 245 244 241 238 237 235 233 233 235 236 238 239 240 242 243 243
263 267 270 273 276 278 280 282 284 285 286 285 284 283 282 283 284 285 287 289 290 290 290 289 289 288 287 287 287 287 288 289 291 293 296 299 302 302 303 303 304 306 310 312 313 314 314 316 317 315 304 287 273 265 257 255 255 254 250 254 259 248 234 231 233 236 243 247 247 246 245 242 240 238 236 234 235 236 236 238 241 242 245 246 245
264 267 271 274 276 278 280 282 284 286 289 290 290 289 288 288 288 289 290 291 291 291 291 291 291 290 290 289 289 289 290 290 291 293 295 298 299 300 300 301 302 304 307 310 312 313 314 316 318 319 314 298 281 268 258 255 257 255 249 249 251 243 234 235 237 239 243 247 248 245 241 242 244 243 239 235 236 238 236 235 237 240 243 245 244
265 268 272 274 276 279 281 283 285 288 291 293 294 294 293 293 293 292 292 292 292 292 292 292 292 292 291 290 290 291 291 291 292 293 294 296 297 298 299 300 302 303 305 307 309 311 313 315 317 320 319 308 288 272 260 255 256 255 251 248 246 245 242 239 239 241 245 248 249 245 242 245 248 247 240 233 231 235 235 235 236 238 240 242 242
266 270 273 274 277 280 283 285 287 289 292 294 295 296 296 296 295 294 293 292 292 292 292 292 292 292 292 291 291 291 292 292 292 292 293 295 296 297 298 300 302 303 305 305 306 307 309 311 314 318 320 314 296 275 261 255 255 256 252 247 244 244 244 241 239 242 245 246 247 246 246 248 247 244 240 235 230 230 231 235 237 237 239 240 241
267 271 274 275 278 282 284 286 288 289 291 293 294 296 297 297 296 295 294 293 293 292 292 293 293 293 293 292 292 292 292 292 291 292 292 294 295 296 298 299 301 303 304 304 304 304 306 308 311 314 317 316 302 280 264 257 255 255 253 248 243 241 241 241 241 242 244 244 244 245 248 249 247 243 241 237 233 231 232 236 238 239 239 240 241
270 273 276 277 280 282 284 286 288 289 291 293 294 296 297 298 297 296 296 295 294 293 293 293 293 293 293 292 292 292 292 291 291 291 292 293 294 295 296 298 300 302 303 303 303 303 304 306 308 310 313 315 307 287 268 259 255 254 254 251 246 241 240 241 243 244 244 243 243 245 247 249 249 247 242 238 236 236 235 235 237 240 242 243 242
272 275 277 278 280 283 285 287 289 290 293 295 296 297 298 298 297 297 296 295 294 293 293 293 293 293 293 292 292 292 291 290 290 290 291 292 292 293 295 297 299 301 301 301 301 301 302 304 306 307 310 313 311 295 274 262 257 255 255 253 248 244 242 242 242 243 243 241 241 244 246 248 250 249 247 242 239 238 236 233 234 236 240 243 244
274 276 277 279 281 283 286 289 291 293 294 296 297 297 298 297 296 295 294 294 293 293 292 292 292 292 292 292 292 291 291 290 290 289 290 290 291 293 294 296 298 299 299 299 299 299 300 301 303 305 307 309 311 302 283 268 261 257 255 253 249 247 244 242 242 242 242 242 242 246 248 249 250 250 249 246 243 240 238 234 234 234 235 239 243
274 276 278 281 283 285 288 291 293 295 296 297 298 298 298 298 297 295 294 293 292 292 292 292 291 291 291 290 290 290 290 290 290 290 290 290 290 291 293 295 297 297 297 296 296 297 297 298 301 303 305 305 307 305 292 275 265 260 257 254 250 248 246 244 242 241 241 242 244 248 250 250 249 249 249 247 245 242 239 235 235 236 237 241 244
274 276 279 283 285 288 291 293 295 297 298 299 300 300 300 299 298 297 295 294 292 292 291 291 291 290 290 290 289 288 289 289 290 290 290 290 290 290 292 294 295 295 295 294 294 294 294 296 298 300 302 302 303 303 297 284 271 264 260 257 253 250 247 245 244 243 243 244 246 248 250 250 250 250 250 249 246 243 240 237 236 235 237 242 245
274 278 282 285 288 291 293 295 296 297 299 300 300 300 300 299 298 297 296 295 293 292 292 291 290 290 289 289 289 288 288 288 288 289 289 289 289 290 291 292 292 293 293 292 291 291 292 293 295 296 298 298 299 300 298 290 278 267 261 257 254 252 248 245 245 245 244 245 247 248 248 249 251 251 251 251 248 245 242 239 238 235 233 235 241
275 280 283 286 289 292 293 294 296 298 299 300 300 300 300 299 298 297 295 294 293 292 292 291 290 289 288 288 287 287 287 287 287 287 287 288 289 290 290 291 291 291 291 290 289 290 291 291 292 293 294 294 294 295 295 290 282 270 261 256 252 251 249 245 244 244 245 247 248 248 248 249 250 251 250 250 249 248 246 242 239 238 235 234 238
277 281 284 287 290 291 292 294 297 299 300 300 300 299 299 298 297 296 295 294 293 292 291 290 290 289 288 288 287 287 286 286 286 286 286 286 287 288 289 289 290 290 289 289 290 290 289 289 288 289 290 291 291 292 291 288 282 273 263 258 254 252 249 247 246 245 246 247 248 247 246 246 246 245 247 249 250 250 250 246 241 239 238 236 238
279 282 285 287 289 290 293 296 299 300 300 300 299 298 298 297 297 296 296 294 294 293 292 291 290 289 288 287 287 286 286 286 285 285 286 286 286 286 287 287 288 288 288 288 289 288 287 286 285 284 285 286 287 288 288 286 281 273 265 259 257 256 253 250 248 246 244 245 245 244 246 249 249 246 244 244 246 247 247 245 240 236 237 238 239
280 283 285 286 288 291 296 299 300 300 299 298 298 298 298 297 296 296 296 295 295 294 293 293 291 290 289 288 287 286 285 285 285 285 285 286 286 286 286 286 286 286 287 287 287 287 285 284 283 281 281 282 283 284 285 284 280 274 268 262 258 257 255 253 252 249 245 244 243 244 247 251 254 252 246 240 241 243 242 240 238 237 238 239 239
280 282 284 287 290 295 298 299 298 298 297 297 297 297 297 296 295 295 295 295 296 296 295 294 294 293 292 291 289 288 286 285 285 285 284 284 285 285 285 285 285 284 284 284 284 284 283 283 282 280 278 279 280 281 283 284 280 276 271 264 258 257 257 257 256 254 251 247 245 244 245 248 251 252 247 241 241 243 241 238 237 239 240 239 238
280 283 286 290 293 296 296 296 296 296 296 297 297 297 296 295 295 295 295 295 295 295 295 294 294 293 292 292 291 290 288 287 286 285 285 284 283 283 283 283 283 282 282 282 281 280 281 281 281 279 277 276 277 279 281 282 281 278 274 268 260 256 254 251 251 251 250 246 242 239 239 241 246 248 247 243 241 240 239 237 236 238 240 239 237
282 286 289 292 294 294 293 294 295 296 297 297 296 296 296 296 296 296 296 295 295 295 294 294 293 293 292 291 291 290 289 289 288 286 285 284 283 283 282 281 281 281 280 280 280 279 279 278 278 278 276 274 273 275 278 280 280 278 277 272 263 257 253 251 248 245 243 240 236 234 235 237 241 245 245 243 239 237 235 234 235 237 238 238 239
286 289 291 292 291 291 292 294 296 297 297 297 297 297 297 297 297 297 297 296 295 295 294 293 293 292 292 291 290 289 288 288 287 286 285 284 283 282 281 280 279 279 279 279 279 278 276 274 273 274 274 272 271 272 276 279 279 278 278 275 267 260 255 253 250 247 241 236 231 231 234 238 243 246 246 244 240 236 233 233 236 238 238 237 240
287 288 288 288 289 291 294 296 297 297 297 298 298 298 298 298 298 297 297 296 295 295 294 293 292 291 290 289 289 288 286 285 285 284 283 282 282 281 280 279 278 278 277 277 277 276 274 271 270 270 271 270 270 271 274 277 278 276 276 276 271 264 255 251 252 254 251 244 239 239 241 243 246 247 245 243 240 235 231 232 236 240 240 240 242
285 286 286 288 290 293 295 297 298 298 299 299 299 299 299 299 298 298 297 296 295 294 293 292 291 290 288 287 286 285 284 283 282 281 280 279 279 278 278 277 276 276 275 275 274 273 271 269 268 268 268 268 269 269 272 275 276 274 272 271 270 267 261 255 253 254 253 250 248 247 248 247 245 243 241 240 239 236 233 233 236 240 242 245 245
284 286 288 290 293 295 297 298 299 299 299 300 300 300 300 300 299 299 298 297 297 296 294 293 292 290 288 286 285 283 282 281 280 279 277 276 275 275 275 274 273 272 272 271 271 270 269 267 267 266 267 267 268 268 270 272 273 272 270 268 265 264 261 255 249 247 246 245 243 242 243 243 241 238 238 237 237 236 235 236 236 237 240 247 247
286 288 291 293 296 297 298 299 299 300 301 301 301 301 301 301 302 302 302 302 301 300 299 297 295 293 291 289 286 284 282 280 278 277 276 275 273 271 270 270 270 269 268 267 267 266 265 265 265 265 266 268 268 268 269 270 270 267 264 263 261 259 256 251 247 246 245 241 237 236 237 239 238 237 238 239 239 239 238 238 238 236 237 244 246
289 292 294 296 297 298 299 300 301 302 302 303 303 304 305 306 307 307 307 307 306 306 304 303 301 298 295 293 290 287 284 282 279 277 275 273 272 270 268 267 266 265 264 263 262 262 262 262 262 264 265 267 268 268 268 269 268 263 258 258 260 259 255 249 246 245 242 236 231 229 230 233 235 236 239 241 242 244 244 243 243 241 240 241 243
292 294 296 297 298 299 300 301 302 303 305 306 308 309 311 311 312 312 313 313 314 313 313 311 309 306 303 300 296 293 290 287 283 280 276 273 271 269 267 266 265 264 262 261 259 259 260 260 261 262 263 266 268 268 267 267 268 264 258 256 261 264 262 256 249 245 242 238 235 233 232 232 235 238 242 245 247 251 253 251 249 248 247 246 245
294 295 297 298 299 300 302 303 305 308 310 311 312 313 314 316 318 321 323 325 327 328 328 328 326 323 319 315 310 306 302 298 293 288 282 278 273 270 266 263 262 262 262 261 259 259 260 260 261 262 264 266 267 267 266 264 265 264 260 258 260 264 265 262 255 249 243 239 237 236 235 235 237 241 245 246 245 245 246 247 247 247 249 249 247
295 296 298 299 301 303 306 308 310 312 312 313 314 316 320 324 328 332 336 340 344 346 348 350 350 349 346 341 336 330 324 319 314 309 301 293 284 277 272 268 264 262 262 262 261 261 263 263 263 263 263 264 264 264 264 262 261 261 259 256 257 260 262 260 255 248 243 239 236 234 233 234 235 237 239 239 236 234 234 237 242 244 245 245 244
296 297 298 300 303 307 309 311 312 312 313 315 318 322 327 332 337 342 348 354 358 1 3 6 8 9 9 8 4 358 351 344 337 333 329 321 309 297 287 280 274 269 267 266 265 265 265 265 264 263 263 265 265 264 263 263 262 261 258 255 254 255 257 256 252 245 239 238 240 239 237 236 236 237 238 238 236 235 235 237 241 243 241 239 238
294 296 299 303 306 308 309 310 311 312 314 317 322 327 332 337 343 349 354 360 4 8 11 13 15 18 20 21 20 17 13 5 355 345 337 331 325 318 309 299 290 283 278 274 272 272 271 269 268 265 262 262 263 261 259 260 262 262 260 259 258 256 255 254 252 246 241 241 245 246 244 242 241 242 244 245 244 242 240 239 240 241 239 236 234
292 295 300 303 305 306 308 310 312 314 316 320 325 331 337 342 348 353 358 3 7 10 13 16 17 19 22 23 25 25 25 23 19 11 360 346 333 324 317 311 305 299 292 285 280 279 278 277 276 273 268 263 260 259 258 258 259 259 260 260 261 261 258 256 255 254 252 251 253 253 251 250 249 248 249 252 253 252 250 247 247 248 248 246 245
290 295 298 300 302 305 308 311 313 316 319 323 329 335 341 346 351 355 0 5 9 11 14 15 16 18 19 21 22 24 26 27 28 27 24 19 11 359 344 329 317 308 301 295 289 286 284 283 283 283 281 277 272 267 263 259 257 257 257 255 255 257 259 259 258 258 258 258 259 260 259 258 258 258 257 258 258 258 257 256 255 256 256 257 258
288 292 296 299 302 305 308 311 314 318 321 326 331 337 344 349 353 357 2 6 10 12 14 15 16 17 18 19 20 20 21 23 26 28 29 29 28 25 21 15 4 348 330 314 303 295 290 287 286 286 286 286 284 279 273 267 261 259 257 255 253 254 256 258 258 258 259 259 260 262 263 264 264 265 265 265 264 263 262 262 262 262 262 262 263
287 292 296 300 303 305 308 311 314 317 321 326 331 336 343 348 354 359 4 7 10 12 14 16 16 17 18 19 19 18 19 20 22 24 26 27 28 29 30 31 29 25 20 10 353 333 314 302 295 291 289 289 288 287 284 280 275 271 267 262 258 257 257 258 259 260 261 262 263 264 265 266 267 268 268 268 268 268 266 265 264 263 263 263 263
288 293 297 299 301 303 306 309 311 314 318 324 329 334 339 345 353 359 4 7 10 12 14 15 16 16 17 19 18 18 17 18 19 22 23 23 23 24 26 27 28 29 30 29 27 21 13 359 340 321 308 300 295 292 290 287 285 282 279 274 270 266 264 262 262 263 264 265 266 267 268 269 270 270 271 271 271 272 271 271 270 269 268 267 268
290 294 296 298 299 301 304 306 308 310 315 319 323 328 334 341 348 354 360 5 9 11 12 13 15 16 17 17 16 16 15 15 17 19 20 20 20 21 21 21 22 23 25 26 27 27 27 25 22 16 5 350 334 319 309 301 296 292 288 285 281 277 274 271 269 269 269 269 270 270 271 272 273 273 273 273 273 273 273 273 274 274 274 274 273
292 294 295 297 299 301 303 304 305 307 309 312 315 320 326 333 340 346 352 359 3 5 8 9 11 12 13 13 13 13 12 13 15 16 15 15 16 16 16 17 18 19 20 21 21 22 22 23 24 25 24 21 17 10 360 348 335 321 310 301 295 290 285 282 278 276 275 274 274 274 274 275 276 276 277 278 277 277 277 277 277 277 277 277 277
291 292 294 297 300 301 302 303 305 306 306 306 309 313 319 326 331 338 344 351 355 358 2 4 6 7 8 7 8 10 10 12 13 12 11 11 11 11 11 13 14 14 15 16 18 18 17 17 18 18 19 20 20 19 19 17 13 6 357 345 332 319 309 301 295 290 286 282 280 279 278 277 277 277 278 278 279 279 279 279 279 279 279 279 279
289 291 295 299 302 303 305 306 307 306 306 306 308 311 316 321 327 331 338 345 348 351 354 357 1 3 4 3 5 6 7 7 8 8 8 7 6 6 6 6 7 7 9 11 12 13 13 13 13 13 14 13 13 13 14 15 16 15 13 11 6 360 351 341 330 320 311 304 298 293 290 287 285 284 282 282 281 281 281 281 281 280 280 280 280
292 296 300 304 305 306 307 308 308 309 308 308 309 312 315 319 323 327 333 339 343 346 348 351 354 358 0 1 2 3 2 2 2 3 4 4 3 3 2 2 2 2 2 3 5 5 6 6 8 9 9 9 8 8 8 8 8 8 8 8 8 8 7 5 0 354 346 338 329 321 315 309 305 301 298 296 294 292 291 289 288 286 284 283 282
297 301 305 307 308 309 311 312 314 315 314 315 317 319 321 323 326 332 336 338 340 342 345 346 348 351 354 357 358 358 357 357 357 357 358 359 359 359 359 358 358 358 358 358 358 358 358 359 360 1 2 2 3 3 3 3 3 2 1 1 1 0 1 2 2 2 1 357 352 345 338 331 325 320 316 313 311 309 307 305 303 301 298 294 291
300 305 308 310 311 314 315 317 319 320 321 323 326 327 326 326 330 335 337 337 338 340 342 343 344 345 347 350 352 352 352 353 353 354 355 355 355 355 355 354 354 354 354 354 354 353 353 352 352 352 353 354 355 356 357 358 359 358 357 357 356 355 354 354 354 355 355 356 356 354 351 346 340 333 327 323 320 318 316 315 314 313 311 308 304
306 312 314 315 318 319 319 319 322 323 325 328 330 331 330 328 328 333 335 335 337 340 341 341 341 341 341 343 344 345 346 347 348 350 351 352 352 351 351 350 350 349 349 349 349 349 349 348 347 346 346 345 346 347 348 350 351 352 353 353 353 352 351 350 349 348 347 347 348 349 350 349 347 343 338 333 328 324 321 320 319 319 318 316 314
313 318 320 322 323 323 320 319 321 324 326 328 329 331 330 326 325 329 335 337 337 338 339 338 337 336 337 338 339 340 340 341 341 343 344 345 346 346 345 345 344 344 344 344 344 343 343 343 342 341 341 340 340 340 340 341 342 344 345 347 348 348 348 347 347 346 344 343 342 342 342 343 344 344 343 340 336 332 327 324 322 321 321 320 319
313 317 319 321 324 324 322 321 322 324 325 326 327 328 327 325 324 328 334 336 336 334 334 334 333 333 333 334 335 335 336 336 336 337 338 338 339 339 340 340 339 340 340 341 341 340 339 338 337 336 335 335 335 335 335 335 335 335 337 339 341 342 343 343 343 343 342 341 340 339 338 337 338 338 339 339 338 336 333 329 326 323 322 321 321
311 314 315 316 319 321 320 320 321 322 323 324 325 326 325 325 325 327 330 332 331 330 329 329 330 330 330 330 331 332 332 332 332 332 332 332 333 333 335 335 336 337 338 338 338 338 337 335 334 333 332 332 331 331 330 330 329 329 329 331 333 335 336 337 338 339 339 339 338 338 337 335 335 334 334 334 335 335 334 332 329 325 323 321 321
308 311 311 312 314 315 315 315 318 320 321 322 324 325 325 326 326 325 326 328 327 326 325 326 327 328 327 327 327 327 326 326 326 327 327 327 328 330 332 333 334 335 336 336 337 337 336 334 333 332 331 329 328 327 326 325 325 325 325 325 326 328 329 331 332 333 334 334 334 335 334 334 333 332 331 331 331 331 332 331 329 327 324 321 320
307 309 309 310 311 311 311 312 315 318 319 320 322 323 324 326 326 325 325 326 325 324 324 324 324 325 324 324 323 323 323 323 324 324 325 326 328 330 331 332 332 333 334 335 335 335 334 333 332 331 329 328 327 325 324 323 322 321 322 322 322 323 323 324 326 327 328 329 330 330 331 331 331 330 329 329 328 328 328 328 328 326 324 321 319
307 307 307 308 308 309 309 311 313 316 317 318 321 322 324 326 326 325 324 324 324 323 323 323 323 323 324 324 324 324 325 325 325 326 326 327 329 330 331 331 332 333 333 333 333 333 332 332 331 330 329 328 326 325 324 322 321 320 319 319 319 319 320 320 321 321 323 324 325 326 326 327 327 327 326 326 326 325 325 325 325 324 323 321 318
306 307 307 307 308 310 311 313 315 318 319 320 322 323 324 326 326 324 323 323 324 324 324 324 325 325 327 327 328 328 328 328 328 328 328 328 329 330 331 331 332 332 332 332 332 332 331 331 331 330 329 328 327 325 324 322 320 319 317 317 316 316 316 317 317 318 319 320 320 321 322 322 323 323 322 322 322 322 321 321 321 321 321 319 318
Height
5783 5783 5783 5783 5783 5782 5781 5780 5779 5779 5778 5778 5777 5777 5776 5776 5775 5774 5774 5773 5772 5771 5770 5770 5769 5768 5767 5765 5764 5762 5760 5759 5757 5756 5754 5753 5752 5750 5748 5747 5745 5743 5741 5739 5737 5734 5732 5730 5727 5725 5723 5723 5723 5722 5722 5723 5722 5722 5723 5725 5726 5727 5728 5729 5730 5731 5732 5734 5736 5737 5738 5740 5741 5742 5744 5746 5747 5749 5749 5749 5750 5751 5752 5753 5754
5780 5780 5781 5781 5780 5779 5778 5777 5777 5776 5775 5775 5774 5773 5773 5772 5772 5771 5770 5769 5768 5767 5766 5766 5765 5764 5763 5762 5760 5759 5757 5755 5754 5752 5751 5750 5748 5747 5745 5743 5741 5739 5737 5735 5733 5731 5729 5726 5724 5721 5719 5719 5718 5718 5718 5718 5718 5719 5720 5721 5722 5723 5724 5726 5727 5728 5729 5730 5732 5733 5734 5736 5737 5739 5741 5742 5743 5744 5746 5746 5747 5748 5749 5750 5751
5778 5778 5778 5778 5777 5776 5775 5774 5774 5773 5772 5772 5771 5770 5769 5769 5768 5767 5766 5765 5764 5763 5762 5762 5761 5760 5759 5758 5756 5755 5753 5752 5750 5749 5747 5746 5745 5744 5741 5740 5738 5736 5734 5732 5729 5727 5725 5723 5721 5718 5716 5715 5714 5714 5714 5714 5714 5715 5717 5718 5718 5718 5720 5722 5723 5725 5726 5727 5728 5730 5731 5733 5734 5735 5737 5739 5740 5741 5743 5744 5744 5745 5745 5746 5747
5775 5775 5775 5774 5774 5773 5772 5771 5771 5770 5769 5768 5767 5767 5766 5765 5764 5763 5762 5761 5760 5759 5758 5757 5756 5756 5754 5753 5752 5751 5749 5748 5747 5745 5744 5742 5741 5740 5738 5736 5735 5733 5731 5729 5726 5724 5722 5719 5717 5715 5713 5712 5710 5710 5710 5710 5711 5711 5713 5714 5715 5715 5717 5719 5720 5722 5723 5724 5725 5727 5728 5729 5730 5731 5733 5737 5738 5738 5739 5740 5740 5741 5741 5742 5744
5772 5772 5771 5771 5770 5769 5769 5768 5767 5767 5766 5765 5764 5763 5762 5761 5760 5759 5758 5757 5756 5755 5754 5753 5752 5751 5750 5749 5748 5747 5745 5744 5743 5741 5740 5739 5738 5736 5735 5733 5731 5729 5728 5725 5723 5721 5719 5716 5714 5712 5709 5708 5707 5706 5706 5707 5708 5708 5709 5710 5712 5713 5714 5715 5716 5718 5719 5720 5721 5723 5724 5725 5726 5727 5729 5733 5734 5734 5734 5735 5735 5736 5737 5738 5739
5768 5768 5768 5767 5767 5766 5766 5765 5764 5764 5763 5762 5761 5760 5758 5757 5756 5755 5754 5753 5751 5750 5749 5748 5747 5746 5746 5745 5743 5742 5741 5740 5739 5737 5736 5735 5733 5732 5731 5729 5727 5726 5724 5722 5720 5718 5716 5714 5711 5709 5707 5705 5703 5702 5702 5704 5705 5705 5706 5706 5708 5709 5710 5711 5713 5714 5715 5716 5717 5719 5720 5721 5722 5723 5725 5727 5729 5729 5729 5729 5730 5733 5734 5734 5735
5765 5765 5764 5764 5764 5764 5763 5762 5761 5760 5759 5758 5757 5756 5755 5753 5752 5751 5750 5749 5747 5746 5745 5744 5743 5742 5741 5740 5739 5738 5737 5736 5734 5733 5732 5731 5730 5728 5727 5726 5724 5722 5720 5718 5716 5714 5713 5711 5708 5706 5704 5702 5700 5699 5699 5700 5701 5702 5702 5702 5704 5705 5706 5707 5708 5710 5711 5712 5713 5715 5717 5717 5718 5719 5720 5722 5724 5725 5726 5726 5727 5729 5730 5730 5731
5761 5761 5761 5761 5761 5760 5759 5759 5758 5757 5756 5755 5753 5752 5750 5749 5748 5747 5746 5744 5743 5742 5740 5739 5738 5737 5736 5735 5734 5733 5732 5731 5730 5729 5728 5727 5726 5724 5723 5722 5720 5719 5717 5715 5712 5710 5709 5707 5705 5703 5701 5699 5697 5696 5696 5696 5697 5698 5698 5698 5699 5701 5702 5703 5704 5706 5707 5708 5709 5711 5712 5713 5714 5715 5717 5718 5720 5721 5723 5724 5724 5726 5726 5726 5726
5758 5758 5758 5758 5757 5756 5756 5755 5754 5753 5752 5750 5749 5748 5746 5745 5744 5743 5741 5740 5739 5737 5736 5735 5734 5732 5731 5730 5730 5729 5728 5727 5726 5725 5724 5723 5721 5720 5719 5717 5716 5715 5713 5711 5709 5707 5705 5704 5702 5700 5698 5696 5694 5693 5692 5692 5693 5693 5694 5694 5695 5696 5698 5699 5700 5701 5703 5704 5706 5707 5707 5708 5710 5711 5713 5714 5716 5717 5718 5720 5721 5722 5721 5720 5721
5755 5755 5754 5754 5753 5752 5752 5751 5750 5749 5747 5746 5745 5743 5742 5741 5740 5738 5737 5736 5734 5733 5731 5730 5729 5728 5727 5725 5724 5723 5723 5722 5721 5720 5720 5719 5717 5715 5714 5713 5712 5711 5709 5707 5705 5703 5701 5700 5699 5697 5695 5693 5691 5690 5688 5688 5689 5689 5689 5690 5691 5691 5693 5695 5696 5697 5698 5700 5701 5703 5703 5705 5706 5708 5709 5710 5711 5712 5713 5715 5716 5716 5716 5716 5718
5752 5751 5750 5750 5749 5748 5747 5746 5745 5744 5743 5741 5740 5739 5738 5736 5735 5734 5733 5731 5730 5728 5727 5725 5724 5723 5722 5721 5720 5719 5717 5717 5716 5715 5714 5714 5713 5711 5709 5708 5707 5706 5705 5703 5701 5699 5697 5696 5695 5694 5692 5690 5689 5687 5685 5685 5685 5685 5685 5686 5686 5687 5689 5690 5691 5693 5694 5696 5697 5698 5699 5701 5702 5703 5704 5705 5706 5707 5708 5710 5711 5711 5712 5713 5714
5748 5747 5746 5745 5745 5744 5743 5742 5741 5739 5738 5737 5736 5734 5733 5732 5731 5729 5728 5727 5725 5724 5722 5721 5720 5718 5717 5716 5715 5714 5713 5712 5711 5710 5709 5708 5708 5707 5705 5704 5702 5701 5700 5699 5697 5696 5694 5692 5691 5690 5689 5687 5685 5684 5683 5681 5681 5681 5681 5682 5682 5683 5685 5686 5687 5689 5690 5691 5693 5694 5695 5697 5697 5698 5699 5699 5701 5702 5703 5704 5706 5707 5708 5709 5710
5744 5743 5742 5741 5740 5739 5738 5737 5736 5735 5734 5733 5731 5730 5729 5728 5726 5725 5724 5722 5720 5719 5717 5716 5715 5713 5712 5711 5710 5709 5708 5707 5706 5705 5704 5703 5702 5701 5700 5699 5698 5697 5695 5694 5693 5692 5690 5689 5687 5686 5685 5684 5682 5681 5680 5679 5678 5677 5677 5678 5678 5679 5680 5681 5683 5685 5686 5687 5688 5689 5691 5692 5693 5694 5695 5695 5696 5697 5698 5700 5701 5702 5704 5705 5706
5740 5739 5738 5737 5736 5735 5734 5733 5732 5731 5729 5728 5727 5726 5725 5723 5722 5721 5719 5717 5716 5714 5712 5711 5710 5708 5707 5706 5705 5704 5703 5702 5701 5700 5699 5698 5697 5696 5695 5694 5693 5692 5690 5689 5688 5687 5686 5685 5684 5682 5681 5680 5679 5678 5677 5676 5674 5674 5673 5673 5674 5675 5676 5677 5678 5680 5681 5682 5684 5685 5686 5687 5688 5689 5690 5690 5691 5692 5694 5695 5696 5697 5700 5702 5701
5736 5735 5734 5733 5732 5731 5730 5729 5728 5727 5725 5724 5723 5722 5720 5719 5717 5716 5714 5713 5711 5709 5707 5706 5704 5703 5702 5701 5700 5699 5698 5697 5696 5694 5693 5693 5692 5691 5690 5689 5688 5687 5685 5684 5684 5683 5682 5681 5680 5678 5677 5676 5675 5674 5673 5672 5671 5670 5669 5669 5669 5670 5671 5673 5674 5675 5677 5678 5679 5680 5681 5682 5683 5684 5685 5686 5687 5688 5689 5690 5691 5692 5694 5695 5694
5732 5731 5730 5729 5728 5727 5726 5725 5724 5722 5721 5720 5718 5717 5716 5714 5713 5711 5710 5708 5706 5704 5702 5701 5699 5697 5696 5695 5694 5693 5692 5691 5690 5689 5688 5687 5686 5685 5685 5683 5682 5681 5680 5679 5679 5678 5678 5677 5676 5675 5673 5672 5671 5670 5669 5668 5667 5666 5666 5665 5666 5666 5667 5668 5669 5670 5672 5673 5674 5675 5676 5676 5678 5679 5680 5681 5682 5682 5683 5684 5685 5686 5687 5687 5688
5728 5727 5727 5726 5725 5724 5722 5721 5720 5718 5717 5715 5714 5712 5711 5709 5708 5706 5705 5703 5701 5699 5697 5695 5694 5692 5691 5689 5688 5687 5686 5685 5684 5683 5682 5681 5680 5679 5678 5678 5677 5676 5675 5674 5674 5673 5672 5672 5671 5670 5669 5668 5667 5665 5665 5664 5663 5663 5662 5662 5662 5662 5662 5663 5664 5665 5666 5667 5668 5670 5671 5671 5673 5673 5674 5676 5677 5677 5678 5678 5679 5681 5681 5683 5684
5724 5724 5723 5722 5721 5720 5718 5717 5715 5714 5712 5711 5709 5708 5706 5705 5703 5701 5700 5698 5696 5694 5692 5690 5688 5687 5685 5684 5682 5681 5680 5678 5678 5677 5676 5675 5674 5673 5672 5671 5671 5670 5669 5669 5668 5668 5667 5666 5666 5666 5665 5664 5662 5661 5660 5659 5659 5659 5658 5657 5657 5658 5658 5659 5659 5660 5660 5662 5663 5665 5666 5667 5668 5668 5669 5671 5672 5672 5673 5674 5675 5676 5677 5679 5680
5721 5720 5719 5718 5717 5716 5715 5713 5711 5710 5708 5707 5705 5703 5702 5700 5698 5697 5695 5693 5691 5689 5687 5685 5683 5681 5680 5678 5677 5675 5674 5673 5672 5671 5670 5669 5668 5667 5666 5665 5665 5664 5663 5663 5663 5662 5662 5661 5660 5660 5660 5659 5658 5657 5656 5656 5655 5654 5654 5653 5653 5654 5654 5654 5654 5655 5655 5656 5658 5660 5662 5662 5663 5663 5664 5665 5666 5667 5669 5670 5671 5671 5672 5674 5675
5717 5716 5715 5714 5713 5712 5711 5709 5707 5705 5704 5702 5701 5699 5698 5696 5694 5692 5689 5687 5686 5684 5681 5679 5677 5675 5674 5672 5671 5669 5668 5666 5665 5664 5664 5663 5662 5661 5661 5660 5659 5658 5657 5657 5657 5657 5656 5656 5655 5654 5654 5654 5654 5653 5652 5651 5651 5650 5650 5649 5649 5649 5649 5649 5649 5649 5650 5651 5653 5655 5656 5656 5657 5658 5659 5660 5661 5662 5664 5666 5666 5666 5668 5669 5670
5713 5712 5711 5710 5709 5708 5706 5705 5703 5701 5699 5698 5696 5695 5693 5691 5689 5686 5684 5682 5680 5677 5675 5673 5671 5669 5667 5665 5664 5663 5661 5660 5659 5658 5657 5656 5655 5655 5654 5654 5653 5652 5651 5651 5651 5651 5651 5650 5649 5649 5649 5649 5649 5648 5647 5646 5646 5646 5645 5645 5645 5645 5644 5644 5644 5644 5644 5645 5647 5648 5650 5651 5652 5653 5654 5655 5656 5657 5659 5661 5661 5661 5664 5665 5666
5709 5708 5707 5706 5705 5704 5702 5700 5698 5697 5695 5694 5692 5690 5688 5686 5683 5681 5678 5676 5673 5671 5669 5666 5664 5662 5660 5658 5656 5655 5654 5653 5652 5651 5650 5649 5648 5648 5648 5647 5647 5646 5646 5645 5645 5645 5646 5644 5643 5643 5643 5643 5643 5643 5642 5642 5642 5641 5641 5641 5641 5641 5640 5640 5640 5640 5640 5641 5642 5643 5645 5646 5647 5648 5649 5650 5651 5653 5655 5656 5656 5657 5659 5660 5661
5706 5705 5704 5702 5701 5699 5698 5696 5695 5693 5691 5689 5687 5685 5683 5680 5678 5675 5673 5670 5667 5665 5662 5659 5657 5655 5653 5651 5649 5647 5646 5644 5644 5643 5643 5642 5641 5641 5640 5640 5640 5640 5640 5639 5639 5640 5640 5639 5638 5637 5638 5638 5638 5638 5637 5637 5637 5637 5636 5636 5636 5636 5636 5636 5636 5636 5636 5637 5638 5639 5640 5641 5642 5643 5644 5645 5647 5648 5650 5651 5652 5653 5654 5655 5657
5702 5701 5700 5698 5697 5695 5694 5692 5691 5689 5687 5684 5682 5680 5677 5675 5672 5669 5667 5664 5661 5658 5655 5653 5650 5647 5645 5643 5641 5639 5638 5636 5635 5634 5634 5634 5634 5633 5633 5633 5633 5633 5633 5633 5634 5634 5634 5634 5633 5632 5632 5632 5633 5633 5632 5632 5632 5632 5632 5632 5632 5632 5632 5632 5632 5632 5632 5632 5634 5635 5636 5637 5638 5639 5640 5641 5642 5644 5646 5647 5647 5648 5649 5651 5652
5698 5697 5696 5694 5693 5691 5690 5688 5686 5684 5682 5680 5678 5675 5673 5670 5667 5664 5661 5658 5655 5652 5649 5645 5642 5639 5637 5634 5632 5630 5629 5628 5627 5625 5625 5626 5626 5626 5626 5626 5626 5626 5627 5627 5628 5628 5628 5628 5627 5627 5627 5627 5627 5627 5627 5628 5628 5628 5628 5628 5628 5628 5628 5628 5628 5628 5628 5628 5629 5630 5631 5632 5634 5635 5636 5637 5638 5640 5641 5642 5643 5644 5645 5646 5648
5694 5693 5692 5691 5689 5687 5686 5684 5682 5680 5678 5676 5674 5671 5668 5666 5663 5660 5657 5653 5650 5646 5643 5639 5636 5632 5629 5626 5624 5622 5620 5619 5618 5618 5617 5617 5618 5618 5619 5619 5620 5620 5620 5621 5621 5622 5622 5622 5622 5622 5622 5622 5622 5622 5622 5622 5623 5624 5624 5624 5625 5624 5624 5624 5624 5624 5624 5625 5625 5626 5627 5628 5629 5630 5632 5633 5634 5636 5636 5638 5639 5639 5640 5642 5643
5690 5689 5688 5687 5685 5684 5682 5680 5679 5677 5675 5672 5670 5667 5665 5662 5659 5656 5653 5649 5646 5642 5638 5634 5630 5627 5623 5620 5617 5615 5613 5612 5611 5610 5610 5610 5611 5611 5612 5612 5613 5614 5614 5615 5615 5616 5616 5616 5616 5617 5617 5617 5617 5617 5618 5618 5618 5619 5620 5620 5620 5621 5621 5621 5620 5621 5621 5621 5622 5622 5623 5624 5625 5626 5628 5629 5630 5631 5632 5633 5635 5635 5636 5637 5638
5687 5685 5684 5683 5682 5680 5679 5677 5676 5674 5672 5670 5667 5665 5662 5659 5656 5653 5649 5646 5642 5639 5635 5631 5627 5623 5619 5616 5613 5610 5608 5607 5605 5605 5604 5604 5605 5605 5606 5606 5607 5608 5609 5609 5610 5610 5610 5611 5611 5612 5612 5612 5612 5612 5613 5613 5614 5614 5615 5616 5616 5617 5617 5617 5617 5617 5617 5618 5618 5619 5620 5621 5622 5623 5624 5625 5626 5626 5627 5628 5630 5631 5632 5633 5633
5683 5682 5681 5680 5679 5677 5676 5675 5673 5671 5669 5667 5665 5662 5659 5656 5653 5650 5647 5644 5640 5636 5633 5629 5625 5621 5617 5614 5611 5608 5606 5604 5603 5602 5601 5600 5600 5600 5601 5601 5602 5603 5604 5604 5605 5605 5605 5606 5606 5607 5607 5607 5607 5608 5608 5609 5610 5610 5611 5611 5612 5613 5613 5614 5614 5614 5614 5614 5615 5616 5617 5618 5619 5620 5621 5622 5622 5623 5624 5624 5625 5626 5627 5628 5628
5680 5679 5678 5677 5676 5675 5673 5672 5671 5669 5667 5664 5662 5660 5657 5654 5651 5648 5645 5642 5639 5635 5632 5628 5625 5621 5617 5614 5610 5607 5605 5603 5602 5600 5599 5599 5598 5598 5598 5598 5598 5599 5599 5600 5600 5601 5601 5601 5602 5603 5603 5603 5603 5604 5604 5605 5606 5606 5607 5607 5608 5609 5610 5610 5611 5611 5611 5611 5612 5612 5613 5614 5615 5615 5617 5618 5619 5619 5620 5621 5621 5622 5622 5623 5623
5677 5676 5675 5674 5674 5673 5671 5670 5668 5667 5665 5662 5660 5658 5655 5653 5650 5647 5644 5641 5638 5635 5632 5629 5626 5622 5619 5616 5612 5609 5606 5604 5602 5600 5599 5598 5597 5597 5596 5596 5596 5596 5596 5596 5596 5597 5597 5598 5598 5599 5600 5600 5600 5600 5601 5601 5602 5602 5603 5603 5604 5605 5606 5606 5607 5607 5607 5607 5608 5608 5609 5610 5610 5611 5611 5612 5613 5614 5615 5616 5617 5618 5618 5618 5619
5674 5674 5673 5672 5671 5670 5669 5668 5666 5665 5663 5661 5658 5656 5654 5651 5649 5646 5643 5641 5638 5635 5632 5630 5627 5624 5621 5618 5615 5612 5609 5606 5604 5602 5600 5598 5597 5596 5595 5595 5594 5594 5594 5594 5594 5594 5594 5594 5595 5595 5596 5597 5597 5597 5598 5598 5598 5599 5599 5600 5600 5601 5601 5602 5603 5603 5603 5603 5604 5604 5605 5605 5606 5606 5607 5607 5608 5608 5610 5611 5611 5612 5613 5614 5614
5672 5672 5671 5671 5670 5668 5667 5666 5664 5663 5661 5659 5657 5655 5652 5650 5648 5645 5643 5640 5638 5635 5633 5630 5628 5625 5622 5620 5617 5615 5612 5609 5606 5604 5602 5599 5598 5596 5595 5594 5593 5593 5592 5592 5592 5592 5592 5592 5592 5592 5592 5593 5594 5594 5594 5595 5595 5595 5596 5596 5597 5597 5598 5598 5599 5599 5599 5599 5599 5600 5600 5600 5601 5602 5602 5602 5603 5603 5604 5605 5605 5606 5607 5608 5608
5671 5670 5670 5669 5668 5666 5665 5664 5662 5661 5659 5657 5656 5654 5651 5649 5647 5645 5643 5640 5638 5635 5633 5631 5629 5626 5624 5621 5619 5617 5614 5612 5609 5607 5604 5602 5600 5598 5596 5594 5593 5592 5591 5591 5590 5590 5590 5590 5589 5589 5589 5590 5590 5590 5591 5591 5592 5592 5592 5593 5593 5594 5594 5594 5595 5595 5595 5595 5595 5595 5595 5595 5596 5596 5597 5597 5598 5598 5598 5599 5599 5600 5601 5601 5602
5669 5668 5668 5667 5666 5664 5663 5662 5660 5659 5657 5656 5654 5652 5651 5649 5646 5644 5642 5640 5638 5636 5634 5632 5630 5628 5625 5623 5621 5619 5617 5614 5612 5610 5607 5605 5603 5601 5599 5597 5595 5593 5592 5591 5590 5589 5588 5588 5587 5587 5587 5587 5587 5587 5587 5588 5588 5588 5589 5589 5590 5590 5590 5590 5590 5590 5590 5591 5591 5591 5591 5591 5591 5591 5592 5592 5592 5592 5592 5592 5593 5594 5594 5595 5595
5667 5666 5666 5665 5664 5663 5661 5660 5659 5657 5656 5654 5653 5651 5649 5648 5646 5644 5642 5640 5638 5636 5634 5633 5631 5629 5626 5624 5622 5620 5618 5616 5614 5612 5609 5607 5605 5603 5601 5599 5598 5596 5594 5592 5591 5589 5588 5587 5586 5586 5585 5584 5584 5584 5584 5584 5584 5584 5585 5585 5585 5586 5586 5586 5586 5586 5586 5586 5586 5586 5586 5586 5587 5587 5587 5587 5586 5586 5586 5586 5586 5587 5587 5588 5588
5665 5664 5664 5663 5662 5661 5659 5658 5657 5655 5654 5653 5651 5650 5648 5647 5645 5644 5642 5640 5639 5637 5635 5634 5632 5630 5628 5626 5624 5622 5620 5618 5615 5613 5611 5609 5607 5605 5603 5601 5600 5598 5596 5595 5593 5591 5590 5588 5587 5586 5584 5583 5583 5582 5581 5581 5581 5581 5581 5581 5581 5581 5581 5582 5582 5582 5582 5582 5581 5581 5581 5581 5581 5581 5581 5581 5581 5581 5580 5580 5580 5580 5580 5580 5580
5663 5662 5662 5661 5660 5659 5658 5656 5655 5654 5652 5651 5650 5649 5648 5646 5645 5643 5642 5640 5639 5638 5636 5634 5632 5630 5629 5627 5625 5623 5621 5619 5616 5614 5612 5610 5608 5607 5605 5603 5601 5600 5598 5596 5595 5593 5592 5590 5589 5587 5586 5584 5583 5582 5581 5580 5579 5578 5578 5577 5577 5577 5577 5577 5577 5577 5577 5577 5577 5577 5577 5577 5576 5576 5576 5575 5575 5575 5574 5574 5574 5574 5574 5573 5573
5661 5661 5660 5659 5658 5657 5656 5654 5653 5652 5651 5650 5649 5648 5647 5645 5644 5643 5641 5640 5639 5637 5636 5634 5633 5631 5629 5627 5625 5624 5621 5619 5617 5615 5614 5612 5610 5608 5606 5604 5603 5601 5599 5598 5596 5595 5593 5591 5590 5588 5587 5585 5584 5583 5581 5580 5579 5578 5577 5576 5575 5574 5574 5573 5573 5573 5573 5572 5572 5572 5572 5572 5571 5571 5571 5570 5570 5569 5568 5568 5568 5567 5567 5567 5566
5660 5659 5658 5657 5656 5655 5654 5653 5652 5651 5649 5648 5647 5646 5645 5644 5643 5642 5641 5640 5638 5637 5636 5634 5633 5631 5629 5628 5626 5624 5622 5620 5618 5617 5615 5613 5611 5609 5607 5606 5604 5602 5600 5599 5597 5596 5594 5593 5591 5590 5588 5587 5585 5584 5582 5581 5580 5578 5577 5576 5575 5574 5573 5572 5571 5570 5569 5569 5568 5568 5567 5567 5566 5566 5566 5565 5565 5564 5563 5562 5562 5562 5561 5561 5560
5658 5657 5656 5655 5654 5653 5652 5651 5650 5649 5648 5647 5646 5645 5644 5643 5642 5641 5640 5639 5638 5637 5635 5634 5633 5631 5630 5628 5626 5624 5622 5620 5619 5617 5615 5613 5612 5610 5608 5606 5605 5603 5601 5600 5598 5596 5595 5593 5592 5590 5589 5587 5586 5585 5583 5582 5580 5579 5577 5576 5575 5573 5572 5571 5570 5569 5568 5566 5565 5565 5564 5563 5562 5562 5561 5560 5560 5559 5558 5557 5557 5556 5556 5555 5555
5656 5655 5655 5654 5653 5652 5651 5650 5649 5648 5647 5646 5645 5644 5643 5642 5641 5640 5639 5638 5637 5636 5634 5633 5632 5630 5629 5628 5626 5624 5623 5621 5619 5617 5615 5614 5612 5610 5608 5607 5605 5603 5601 5600 5598 5597 5595 5594 5592 5591 5589 5588 5586 5585 5583 5582 5581 5579 5578 5576 5575 5573 5572 5571 5569 5568 5567 5566 5564 5563 5562 5561 5560 5559 5558 5557 5556 5556 5555 5554 5553 5552 5551 5550 5549
5655 5654 5654 5653 5652 5651 5650 5649 5648 5647 5646 5645 5644 5643 5642 5641 5640 5639 5638 5637 5636 5634 5633 5632 5630 5629 5628 5627 5625 5624 5623 5621 5619 5617 5615 5613 5612 5610 5608 5607 5605 5603 5601 5600 5598 5596 5595 5593 5592 5590 5589 5588 5586 5585 5583 5582 5581 5579 5578 5576 5575 5573 5572 5570 5569 5568 5566 5565 5564 5562 5561 5560 5558 5557 5556 5555 5554 5553 5552 5551 5550 5549 5548 5546 5545
5654 5653 5652 5651 5651 5650 5649 5648 5647 5646 5645 5644 5643 5642 5641 5640 5639 5638 5637 5636 5635 5634 5632 5631 5629 5628 5627 5625 5624 5623 5621 5620 5619 5617 5615 5613 5611 5610 5608 5606 5604 5603 5601 5599 5598 5596 5595 5593 5591 5590 5588 5587 5586 5584 5583 5581 5580 5579 5577 5576 5575 5573 5572 5570 5569 5567 5566 5565 5563 5562 5560 5559 5557 5556 5555 5553 5552 5551 5550 5549 5548 5546 5545 5544 5543
5652 5652 5651 5650 5650 5649 5648 5647 5646 5645 5644 5643 5642 5641 5640 5639 5638 5637 5636 5635 5634 5633 5631 5630 5629 5627 5626 5624 5623 5621 5620 5618 5617 5615 5614 5613 5611 5609 5607 5605 5604 5602 5600 5599 5597 5595 5594 5592 5591 5589 5588 5586 5585 5583 5582 5580 5579 5578 5576 5575 5574 5572 5571 5570 5568 5567 5565 5564 5562 5561 5560 5558 5557 5555 5553 5552 5550 5549 5548 5546 5545 5544 5543 5542 5540
5652 5651 5650 5649 5649 5648 5647 5646 5645 5645 5644 5643 5642 5641 5640 5638 5637 5636 5635 5634 5633 5632 5631 5630 5628 5627 5625 5623 5622 5620 5619 5617 5615 5614 5612 5611 5609 5608 5606 5605 5603 5601 5599 5598 5596 5594 5593 5591 5590 5588 5587 5585 5584 5582 5581 5579 5578 5576 5575 5574 5572 5571 5570 5568 5567 5566 5564 5563 5561 5560 5558 5557 5556 5554 5552 5551 5549 5547 5546 5544 5543 5542 5540 5539 5538
5650 5650 5649 5648 5648 5647 5646 5645 5644 5644 5643 5642 5641 5640 5639 5638 5636 5635 5634 5633 5632 5631 5630 5629 5628 5626 5624 5623 5621 5619 5618 5616 5614 5613 5611 5609 5608 5606 5604 5603 5601 5600 5598 5596 5595 5593 5591 5590 5588 5586 5585 5584 5582 5581 5579 5578 5577 5575 5574 5572 5571 5569 5568 5566 5565 5564 5562 5561 5560 5558 5557 5555 5554 5552 5551 5549 5548 5546 5544 5542 5541 5539 5538 5537 5535
5649 5648 5648 5647 5646 5646 5645 5644 5643 5642 5641 5640 5639 5639 5638 5637 5635 5634 5633 5632 5631 5630 5629 5628 5627 5625 5624 5622 5620 5619 5617 5615 5613 5611 5610 5608 5606 5604 5603 5601 5599 5598 5596 5595 5593 5591 5590 5588 5586 5584 5583 5581 5580 5579 5577 5576 5575 5573 5572 5570 5569 5567 5566 5564 5563 5562 5560 5559 5557 5556 5555 5553 5552 5550 5548 5547 5545 5544 5542 5541 5539 5537 5535 5534 5533
5648 5647 5646 5645 5645 5644 5643 5643 5642 5641 5639 5639 5638 5637 5636 5635 5634 5633 5632 5631 5630 5629 5627 5626 5625 5624 5623 5621 5619 5617 5616 5614 5612 5610 5608 5606 5604 5603 5601 5599 5598 5596 5594 5593 5591 5590 5588 5586 5585 5583 5581 5579 5578 5576 5575 5573 5572 5571 5569 5568 5567 5565 5564 5562 5561 5559 5558 5556 5555 5554 5552 5551 5549 5548 5546 5544 5543 5541 5540 5538 5537 5535 5533 5532 5530
5646 5645 5644 5644 5643 5642 5642 5641 5640 5639 5638 5637 5636 5635 5635 5634 5633 5632 5631 5630 5628 5627 5626 5624 5623 5622 5621 5619 5617 5615 5613 5612 5610 5608 5606 5604 5602 5601 5599 5597 5596 5594 5592 5590 5589 5587 5586 5584 5583 5581 5579 5577 5575 5574 5572 5571 5569 5568 5566 5565 5564 5562 5561 5560 5558 5557 5555 5554 5552 5551 5549 5548 5546 5545 5543 5542 5540 5538 5537 5535 5534 5532 5531 5529 5527
5645 5644 5643 5642 5641 5641 5640 5639 5638 5638 5637 5636 5635 5634 5633 5632 5631 5630 5629 5627 5626 5625 5623 5622 5620 5619 5618 5616 5615 5613 5611 5609 5608 5606 5604 5602 5600 5598 5597 5595 5593 5591 5590 5588 5586 5585 5583 5582 5580 5578 5577 5575 5573 5571 5569 5568 5566 5565 5564 5562 5561 5559 5558 5557 5555 5554 5552 5551 5550 5548 5547 5545 5543 5542 5540 5539 5537 5536 5534 5532 5531 5529 5527 5526 5524